Stations météo

réclame
Mon MeteoGroup
Bournemouth Airport, Grande-Bretagne (3862): Température de l'air & dewpoint: 11.12.2018 06:00:00 - 17.12.2018 06:00:00 (GMT)Bournemouth Airport, Grande-Bretagne (3862): Température de l'air -20cm & Température de l'air -100cm: 11.12.2018 06:00:00 - 17.12.2018 06:00:00 (GMT)Bournemouth Airport, Grande-Bretagne (3862): Vitesse du vent & gusts: 11.12.2018 06:00:00 - 17.12.2018 06:00:00 (GMT)Bournemouth Airport, Grande-Bretagne (3862): Direction du vent: 11.12.2018 06:00:00 - 17.12.2018 06:00:00 (GMT)Bournemouth Airport, Grande-Bretagne (3862): reduced air pressure: 11.12.2018 06:00:00 - 17.12.2018 06:00:00 (GMT)Bournemouth Airport, Grande-Bretagne (3862): visibility: 11.12.2018 06:00:00 - 17.12.2018 06:00:00 (GMT)Bournemouth Airport, Grande-Bretagne (3862): Ensoleillement: 11.12.2018 06:00:00 - 17.12.2018 06:00:00 (GMT)Bournemouth Airport, Grande-Bretagne (3862): Quantités de précipitations: 11.12.2018 06:00:00 - 17.12.2018 06:00:00 (GMT)
Date & Time tt [°C] td [°C] tt -20cm [°C] tt -100cm [°C] ff [km/h] ff [knt] fx [km/h] fx [knt] dd ppp [hPa] vv [km] sd [min] rr [mm]
17.12.2018 06:00:00 - - - - - - - - - - - - -
17.12.2018 05:00:00 5,1 4,3 - - 16 9 - - W 1014,7 26 0 0,0
17.12.2018 04:00:00 4,2 3,4 - - 15 8 - - W 1013,9 25 0 0,0
17.12.2018 03:00:00 3,4 2,9 - - 9 5 - - W 1013,1 19 0 0,0
17.12.2018 02:00:00 4,3 3,3 - - 5 3 - - WSW 1011,9 27 0 0,0
17.12.2018 01:00:00 5,1 3,8 - - 13 7 - - W 1011,2 30 0 0,0
17.12.2018 00:00:00 5,9 4,3 - - 22 12 - - W 1009,9 30 - 0,0
16.12.2018 23:00:00 6,2 4,9 - - 21 11 - - W 1009,2 28 0 0,0
16.12.2018 22:00:00 6,0 4,9 - - 15 8 - - W 1008,0 10 0 0,0
16.12.2018 21:00:00 6,8 5,5 - - 18 10 - - W 1006,9 10 0 0,0
16.12.2018 20:00:00 7,7 6,4 - - 21 11 - - W 1005,7 10 0 0,0
16.12.2018 19:00:00 7,9 7,2 - - 11 6 - - WSW 1004,4 18 0 0,2
16.12.2018 18:00:00 8,3 7,5 - - 9 5 - - SSW 1003,6 10 0 1,0
16.12.2018 17:00:00 8,7 7,9 - - 16 9 - - SW 1003,2 12 0 2,4
16.12.2018 16:00:00 7,3 6,5 - - 9 5 - - ESE 1003,7 6 0 3,4
16.12.2018 15:00:00 9,1 6,8 - - 26 14 - - S 1004,2 4,0 0 2,4
16.12.2018 14:00:00 10,0 8,1 - - 22 12 - - S 1004,3 7 0 0,0
16.12.2018 13:00:00 10,2 7,9 - - 16 9 - - S 1005,1 10 0 0,0
16.12.2018 12:00:00 10,0 8,0 - - 13 7 - - S 1005,9 18 0 0,0
16.12.2018 11:00:00 7,5 7,3 - - 8 4 - - SE 1006,8 10 0 0,0
16.12.2018 10:00:00 2,8 2,6 - - 5 3 - - - 1007,1 10 0 0,0
16.12.2018 09:00:00 1,1 0,8 7,0 9,0 2 1 - - ESE 1007,0 10 0 0,0
16.12.2018 08:00:00 1,5 1,0 - - 5 3 - - E 1006,6 10 0 0,0
16.12.2018 07:00:00 2,9 2,1 - - 2 1 - - SW 1006,6 10 0 0,0
16.12.2018 06:00:00 2,9 2,8 - - 8 4 - - NE 1006,5 16 0 0,0
16.12.2018 05:00:00 1,8 1,0 - - 5 3 - - E 1006,4 15 0 0,0
16.12.2018 04:00:00 6,2 4,0 - - 9 5 - - WSW 1006,2 23 0 0,0
16.12.2018 03:00:00 6,7 4,7 - - 13 7 - - WSW 1005,8 19 0 0,0
16.12.2018 02:00:00 6,4 4,7 - - 9 5 - - WSW 1005,4 19 0 0,0
16.12.2018 01:00:00 6,7 4,4 - - 9 5 - - WSW 1005,2 18 0 0,0
16.12.2018 00:00:00 8,3 5,3 - - 16 9 - - W 1004,8 23 - 0,0
15.12.2018 23:00:00 8,9 5,6 - - 21 11 - - WSW 1004,5 18 0 0,0
15.12.2018 22:00:00 9,5 5,6 - - 24 13 - - WSW 1003,9 18 0 0,0
15.12.2018 21:00:00 9,4 6,1 - - 18 10 - - WSW 1003,3 10 0 0,0
15.12.2018 20:00:00 9,0 6,4 - - 18 10 - - WSW 1002,3 17 0 0,0
15.12.2018 19:00:00 9,6 7,3 - - 16 9 52 28 WSW 1001,8 10 0 0,2
15.12.2018 18:00:00 11,1 10,8 - - 24 13 48 26 SSW 1000,9 2,2 0 1,4
15.12.2018 17:00:00 9,6 9,3 - - 28 15 57 31 S 1000,9 7 0 3,6
15.12.2018 16:00:00 8,0 7,8 - - 26 14 - - SE 1002,0 2,8 0 6,0
15.12.2018 15:00:00 7,1 6,8 - - 26 14 - - SE 1003,9 3,0 0 4,4
15.12.2018 14:00:00 6,0 5,5 - - 31 17 55 30 SE 1005,7 2,2 0 7,4
15.12.2018 13:00:00 6,0 5,0 - - 39 21 63 34 SE 1006,6 7 0 2,4
15.12.2018 12:00:00 6,9 6,5 - - 31 17 54 29 SSE 1009,1 4,0 0 2,4
15.12.2018 11:00:00 5,8 5,2 - - 35 19 55 30 SE 1011,0 3,0 0 1,0
15.12.2018 10:00:00 5,3 4,4 - - 37 20 55 30 SE 1012,1 4,5 0 0,6
15.12.2018 09:00:00 5,0 4,0 7,0 9,4 31 17 55 30 SE 1012,9 5 0 2,4
15.12.2018 08:00:00 4,6 3,1 - - 34 18 50 27 SE 1013,9 9 0 4,0
15.12.2018 07:00:00 4,5 2,5 - - 28 15 48 26 SE 1014,9 4,5 0 2,0
15.12.2018 06:00:00 4,8 1,2 - - 28 15 - - SE 1015,5 14 0 0,0
15.12.2018 05:00:00 5,2 0,0 - - 29 16 - - SE 1016,6 22 0 0,0
15.12.2018 04:00:00 5,1 0,4 - - 29 16 - - SSE 1017,4 21 0 0,0
15.12.2018 03:00:00 5,2 -0,2 - - 26 14 - - SE 1018,5 22 0 0,0
15.12.2018 02:00:00 5,1 -0,5 - - 24 13 - - SE 1019,1 21 0 0,0
15.12.2018 01:00:00 5,2 -1,2 - - 24 13 - - SSE 1019,5 23 0 0,0
15.12.2018 00:00:00 8,3 5,3 - - 16 9 - - W 1004,8 23 - 0,0
14.12.2018 23:00:00 4,8 -1,2 - - 21 11 - - SE 1020,3 21 0 0,0
14.12.2018 22:00:00 4,6 -1,3 - - 16 9 - - ESE 1021,2 10 0 0,0
14.12.2018 21:00:00 4,4 -1,7 - - 18 10 - - ESE 1021,6 10 0 0,0
14.12.2018 20:00:00 4,7 -1,4 - - 15 8 - - ESE 1022,6 10 0 0,0
14.12.2018 19:00:00 4,5 -1,2 - - 15 8 - - ESE 1021,8 10 0 0,0
14.12.2018 18:00:00 4,4 -1,5 - - 15 8 - - E 1021,9 10 0 0,0
14.12.2018 17:00:00 4,2 -0,3 - - 15 8 - - E 1022,2 10 0 0,0
14.12.2018 16:00:00 4,2 -0,1 - - 13 7 - - E 1022,2 9 0 0,0
14.12.2018 15:00:00 5,1 -1,3 - - 16 9 - - ESE 1021,7 10 0 0,0
14.12.2018 14:00:00 5,1 -1,4 - - 18 10 - - ESE 1021,6 23 0 0,0
14.12.2018 13:00:00 5,0 -0,9 - - 16 9 - - E 1021,9 10 0 0,0
14.12.2018 12:00:00 4,0 -0,5 - - 11 6 - - ENE 1022,5 10 0 0,0
14.12.2018 11:00:00 3,2 -1,3 - - 15 8 - - ENE 1022,4 10 0 0,0
14.12.2018 10:00:00 2,1 -2,1 - - 15 8 - - ENE 1022,6 24 0 0,0
14.12.2018 09:00:00 0,7 -2,3 7,4 9,7 11 6 - - ENE 1022,1 10 0 0,0
14.12.2018 08:00:00 -0,4 -2,8 - - 13 7 - - E 1020,7 10 0 0,0
14.12.2018 07:00:00 0,7 -2,4 - - 18 10 - - E 1020,5 10 0 0,0
14.12.2018 06:00:00 1,5 -1,7 - - 13 7 - - ENE 1021,3 19 0 0,0
14.12.2018 05:00:00 1,3 -1,7 - - 15 8 - - ENE 1021,0 17 0 0,0
14.12.2018 04:00:00 1,5 -1,4 - - 16 9 - - ENE 1020,5 15 0 0,0
14.12.2018 03:00:00 1,0 -1,6 - - 15 8 - - ENE 1020,3 17 0 0,0
14.12.2018 02:00:00 1,5 -1,2 - - 16 9 - - ENE 1020,0 19 0 0,0
14.12.2018 01:00:00 0,9 -1,4 - - 16 9 - - ENE 1019,5 18 0 0,0
14.12.2018 00:00:00 1,1 -1,2 - - 16 9 - - ENE 1019,3 18 - 0,0
13.12.2018 23:00:00 1,2 -1,2 - - 11 6 - - ENE 1019,2 17 0 0,0
13.12.2018 22:00:00 0,2 -2,2 - - 11 6 - - ENE 1019,0 19 0 0,0
13.12.2018 21:00:00 1,1 -1,6 - - 13 7 - - ENE 1018,5 21 0 0,0
13.12.2018 20:00:00 1,1 -2,1 - - 13 7 - - ENE 1018,0 23 0 0,0
13.12.2018 19:00:00 1,7 -1,6 - - 15 8 - - ENE 1017,3 26 0 0,0
13.12.2018 18:00:00 2,9 -0,7 - - 18 10 - - E 1016,7 26 0 0,0
13.12.2018 17:00:00 3,7 -0,3 - - 15 8 - - E 1016,0 10 0 0,0
13.12.2018 16:00:00 5,3 -0,4 - - 21 11 - - ESE 1015,2 24 0 0,0
13.12.2018 15:00:00 5,9 -0,7 - - 26 14 - - ESE 1014,8 24 18 0,0
13.12.2018 14:00:00 6,3 -0,1 - - 26 14 50 27 ESE 1014,4 26 6 0,0
13.12.2018 13:00:00 6,4 0,3 - - 26 14 - - ESE 1014,5 10 0 0,0
13.12.2018 12:00:00 6,5 0,0 - - 31 17 48 26 ESE 1014,4 10 0 0,0
13.12.2018 11:00:00 6,3 0,6 - - 28 15 46 25 ESE 1014,5 21 0 0,0
13.12.2018 10:00:00 6,0 0,3 - - 31 17 54 29 SE 1014,3 10 0 0,0
13.12.2018 09:00:00 5,8 0,1 8,0 9,7 28 15 52 28 ESE 1013,9 10 0 0,0
13.12.2018 08:00:00 6,0 0,4 - - 34 18 55 30 ESE 1013,3 10 0 0,0
13.12.2018 07:00:00 6,2 0,5 - - 28 15 57 31 SE 1012,8 20 0 0,0
13.12.2018 06:00:00 6,3 0,3 - - 31 17 54 29 SE 1012,9 22 0 0,0
13.12.2018 05:00:00 6,1 0,9 - - 31 17 57 31 ESE 1013,1 20 0 0,0
13.12.2018 04:00:00 6,4 -0,1 - - 34 18 54 29 SE 1013,1 21 0 0,0
13.12.2018 03:00:00 6,4 -0,3 - - 34 18 59 32 SE 1013,7 23 0 0,0
13.12.2018 02:00:00 6,4 -1,5 - - 34 18 54 29 SE 1014,2 24 0 0,0
13.12.2018 01:00:00 6,7 -1,7 - - 34 18 50 27 SE 1014,6 26 0 0,0
13.12.2018 00:00:00 6,8 -1,2 - - 35 19 54 29 SE 1015,1 25 - 0,0
12.12.2018 23:00:00 6,9 -1,5 - - 31 17 50 27 SE 1015,6 27 0 0,0
12.12.2018 22:00:00 6,8 -1,4 - - 34 18 54 29 SE 1016,3 25 0 0,0
12.12.2018 21:00:00 6,7 -0,4 - - 31 17 55 30 SE 1016,9 10 0 0,0
12.12.2018 20:00:00 6,6 -0,2 - - 31 17 46 25 SE 1017,1 23 0 0,0
12.12.2018 19:00:00 6,7 0,5 - - 28 15 48 26 SE 1017,8 24 0 0,0
12.12.2018 18:00:00 6,6 1,1 - - 21 11 - - SE 1018,5 10 0 0,0
12.12.2018 17:00:00 7,1 2,2 - - 26 14 - - ESE 1018,2 19 0 0,0
12.12.2018 16:00:00 7,6 2,2 - - 18 10 - - ESE 1018,9 10 0 0,0
12.12.2018 15:00:00 7,9 2,0 - - 21 11 - - SE 1019,2 10 0 0,0
12.12.2018 14:00:00 8,1 2,0 - - 24 13 - - SE 1019,6 24 0 0,0
12.12.2018 13:00:00 8,6 3,1 - - 24 13 - - SE 1020,2 10 6 0,0
12.12.2018 12:00:00 9,1 3,2 - - 26 14 - - SE 1020,6 10 12 0,0
12.12.2018 11:00:00 8,8 4,0 - - 22 12 - - SE 1021,2 10 0 0,0
12.12.2018 10:00:00 8,7 3,9 - - 26 14 - - SSE 1020,9 10 30 0,0
12.12.2018 09:00:00 8,3 3,6 8,2 9,9 22 12 - - SE 1020,6 10 0 0,0
12.12.2018 08:00:00 8,4 3,8 - - 21 11 - - SSE 1020,4 10 0 0,0
12.12.2018 07:00:00 8,9 4,3 - - 16 9 - - SSE 1020,5 10 0 0,0
12.12.2018 06:00:00 8,6 4,6 - - 18 10 - - S 1020,1 25 0 0,0
12.12.2018 05:00:00 8,8 5,0 - - 18 10 - - SSE 1019,9 24 0 0,0
12.12.2018 04:00:00 9,0 5,0 - - 15 8 - - SSE 1020,2 24 0 0,0
12.12.2018 03:00:00 8,9 5,4 - - 13 7 - - SE 1020,2 23 0 0,0
12.12.2018 02:00:00 9,2 5,4 - - 13 7 - - SSE 1020,3 23 0 0,0
12.12.2018 01:00:00 9,3 5,0 - - 13 7 - - S 1020,6 22 0 0,0
12.12.2018 00:00:00 9,4 5,7 - - 18 10 54 29 S 1020,9 22 - 0,0
11.12.2018 23:00:00 9,9 6,4 - - 18 10 - - S 1020,9 21 0 0,0
11.12.2018 22:00:00 9,6 6,0 - - 15 8 - - SE 1020,7 22 0 0,0
11.12.2018 21:00:00 9,5 5,3 - - 15 8 - - SE 1021,1 10 0 0,0
11.12.2018 20:00:00 9,6 5,5 - - 18 10 - - SSE 1021,4 25 0 0,0
11.12.2018 19:00:00 9,6 5,3 - - 18 10 - - SSE 1021,7 10 0 0,0
11.12.2018 18:00:00 9,6 5,8 - - 11 6 - - S 1021,7 10 0 0,0
11.12.2018 17:00:00 9,6 5,9 - - 9 5 - - S 1021,9 10 0 0,0
11.12.2018 16:00:00 9,5 6,1 - - 11 6 - - S 1022,0 10 0 0,0
11.12.2018 15:00:00 10,3 6,7 - - 15 8 - - S 1022,5 10 36 -
11.12.2018 14:00:00 10,7 6,8 - - 13 7 - - S 1023,0 22 0 0,0
11.12.2018 13:00:00 9,9 7,7 - - 9 5 - - SSE 1023,5 21 0 0,0
11.12.2018 12:00:00 9,5 7,4 - - 11 6 - - ESE 1023,9 20 12 0,0
11.12.2018 11:00:00 8,4 8,2 - - 11 6 - - ESE 1024,7 19 60 0,0
11.12.2018 10:00:00 5,1 5,1 - - 4 2 - - ENE 1025,1 14 30 0,0
11.12.2018 09:00:00 2,7 2,6 8,4 10,0 4 2 - - ENE 1025,6 10 0 0,0
11.12.2018 08:00:00 1,6 1,4 - - 8 4 - - - 1025,6 9 0 0,2
11.12.2018 07:00:00 0,8 0,7 - - 4 2 - - NE 1025,6 9 0 0,0
11.12.2018 06:00:00 -0,1 -0,3 - - 2 1 - - NNW 1025,7 9 0 0,0

tt = Température de l'air
td = dewpoint
tt -20cm = Température de l'air -20cm
tt -100cm = Température de l'air -100cm
ff = Vitesse du vent
fx = gusts
dd = Direction du vent
ppp = reduced air pressure
vv = visibility
sd = Ensoleillement
rr = Quantités de précipitations

stations d'obs. à proximité